Location: Azul
(36.7830°S, 59.8500°W)
Time: 02:08:10
(UTC-03:00)

AIST 2D - Visible Passes

Search period start: 23 October 2021 00:00
Search period end: 02 November 2021 00:00
Orbit: 449 x 461 km, 97.1° (Epoch: 22 October)

Date Brightness Start Highest point End Pass type
(mag) Time Alt. Az. Time Alt. Az. Time Alt. Az.
23 Oct ? 21:51:56 15° S 21:51:56 15° S 21:52:39 10° S visible
25 Oct ? 22:17:51 16° SSW 22:17:51 16° SSW 22:18:40 10° SSW visible
26 Oct ? 21:43:55 16° SSE 21:43:55 16° SSE 21:44:50 10° SSE visible
27 Oct ? 22:43:43 13° SW 22:43:43 13° SW 22:44:12 10° SSW visible
28 Oct ? 22:09:47 20° S 22:09:47 20° S 22:10:56 10° S visible
29 Oct ? 21:35:49 16° SSE 21:35:49 16° SSE 21:36:53 10° SSE visible
30 Oct ? 22:35:36 17° SSW 22:35:36 17° SSW 22:36:33 10° SSW visible
31 Oct ? 22:01:38 23° S 22:01:38 23° S 22:03:04 10° S visible
01 Nov ? 21:27:39 15° SE 21:27:39 15° SE 21:28:47 10° SSE visible
01 Nov ? 23:01:24 11° SW 23:01:24 11° SW 23:01:34 10° SW visible
